Home   Weather   Bielefeld   Past weeks
Flag for Germany

Past Weather in Bielefeld, North Rhine-Westphalia, Germany — Yesterday and Last 2 Weeks

Now
54 °F

Overcast.


Feels Like: 51 °F
Forecast: 64 / 44 °F
Wind: 8 mph from Southwest

Location: Paderborn / Lippstadt

Current Time: Oct 22, 2019 at 1:24:15 pm

Latest Report: Oct 22, 2019 at 12:20 pm


Visibility: N/A

Pressure: 30.27 "Hg

Humidity: 82%

Dew Point: 48 °F

Location of BielefeldLocation

Past Weather in Bielefeld — Graph

°F

Bielefeld Temperature Yesterday

Maximum temperature yesterday: 64 °F (at 12:50 pm)
Minimum temperature yesterday: 50 °F (at 9:50 pm)
Average temperature yesterday: 58 °F

High & Low Weather Summary for the Past Weeks

 TemperatureHumidityPressure
High75 °F (Oct 13, 3:20 pm)100% (Oct 15, 8:50 pm)30.27 "Hg (Oct 15, 8:50 pm)
Low48 °F (Oct 7, 8:50 pm)53% (Oct 13, 2:50 pm)29.68 "Hg (Oct 8, 7:50 pm)
Average57 °F79%29.84 "Hg
* Reported Oct 7 12:20 pm — Oct 22 12:20 pm, Bielefeld. Weather by CustomWeather, © 2019

Note: Actual official high and low records may vary slightly from our data, if they occured in-between our weather recording intervals... More about our weather records

Advertising

Bielefeld Weather History for the Previous 24 Hours

Scroll right to see more
 ConditionsComfort  
Time TempWeatherWind HumidityBarometerVisibility
12:20 pm
Tue, Oct 22
54 °FOvercast.8 mph82%30.27 "HgN/A
11:50 am52 °FOvercast.6 mph82%30.27 "HgN/A
11:20 am52 °FOvercast.5 mph82%30.24 "HgN/A
10:50 am50 °FOvercast.9 mph88%30.24 "HgN/A
10:20 am50 °FOvercast.8 mph82%30.27 "HgN/A
9:50 am50 °FOvercast.7 mph82%30.24 "HgN/A
9:20 am50 °FPartly sunny.6 mph82%30.24 "HgN/A
8:50 am48 °FSunny.6 mph87%30.21 "Hg10 mi
8:20 am48 °FPassing clouds.7 mph87%30.21 "HgN/A
7:50 am48 °FClear.7 mph87%30.18 "Hg10 mi
7:20 am48 °FClear.7 mph87%30.18 "Hg10 mi
6:50 am50 °FClear.9 mph82%30.18 "Hg10 mi
6:20 am50 °FClear.9 mph82%30.18 "Hg10 mi
5:50 am50 °FClear.10 mph82%30.18 "Hg10 mi
5:20 am50 °FClear.10 mph82%30.18 "Hg10 mi
4:50 am50 °FClear.12 mph82%30.18 "Hg10 mi
4:20 am52 °FClear.9 mph77%30.18 "Hg10 mi
3:50 am52 °FClear.10 mph77%30.18 "Hg10 mi
3:20 am52 °FClear.12 mph77%30.18 "Hg10 mi
2:50 am52 °FClear.8 mph77%30.18 "Hg10 mi
2:20 am50 °FClear.7 mph82%30.18 "Hg10 mi
1:50 am50 °FPassing clouds.6 mph88%30.18 "HgN/A
1:20 am50 °FClear.5 mph88%30.18 "Hg10 mi
12:50 am50 °FClear.6 mph88%30.18 "Hg10 mi
12:20 am52 °FPassing clouds.6 mph82%30.18 "HgN/A
11:50 pm
Mon, Oct 21
52 °FClear.6 mph82%30.18 "Hg10 mi
11:20 pm54 °FClear.7 mph77%30.15 "Hg10 mi
10:50 pm50 °FPassing clouds.2 mph88%30.18 "HgN/A
10:20 pm54 °FClear.5 mph82%30.15 "Hg10 mi
9:50 pm50 °FClear.2 mph88%30.15 "Hg10 mi
9:20 pm52 °FPassing clouds.3 mph88%30.15 "HgN/A
8:50 pm54 °FPassing clouds.3 mph82%30.15 "HgN/A
8:20 pm54 °FPassing clouds.6 mph82%30.12 "HgN/A
7:50 pm55 °FClear.7 mph77%30.12 "Hg10 mi
7:20 pm57 °FClear.10 mph72%30.12 "Hg10 mi
6:50 pm59 °FClear.8 mph68%30.09 "Hg10 mi
6:20 pm61 °FPassing clouds.6 mph68%30.09 "HgN/A
5:50 pm61 °FPassing clouds.7 mph68%30.07 "HgN/A
5:20 pm63 °FPassing clouds.5 mph64%30.07 "HgN/A
4:50 pm63 °FPassing clouds.7 mph68%30.07 "HgN/A
4:20 pm63 °FSunny.12 mph64%30.07 "Hg10 mi
3:50 pm63 °FPassing clouds.13 mph64%30.04 "HgN/A
3:20 pm64 °FPassing clouds.12 mph64%30.04 "HgN/A
2:50 pm63 °FScattered clouds.15 mph68%30.04 "HgN/A
2:20 pm64 °FPassing clouds.12 mph64%30.04 "HgN/A
1:50 pm64 °FPassing clouds.13 mph64%30.04 "HgN/A
1:20 pm64 °FPassing clouds.12 mph64%30.04 "HgN/A
Weather by CustomWeather, © 2019

See weather overview